This demonstration page uses our WeatherBlox Daily Observations layout. Learn more.

Left ArrowRight Arrow

30.21309, -93.2044

Hourly Observations for August 9, 2020

Temp ( °F °C ) Dew Point ( °F °C ) Humidity (%) Winds ( mph kmh ) Pressure ( in mb ) Visibility ( mi km ) Precip ( " mm )
12:15 am 00:15 Clear 78 25.6 76 24.5 94 94 Calm 30.11 1020 10 16 0.00 0.00
12:35 am 00:35 Clear 78 25.6 76 24.6 94 94 Calm 30.11 1020 10 16 0.00 0.00
12:55 am 00:55 Clear 78 25.5 76 24.5 94 94 Calm 30.10 1019 10 16 0.00 0.00
1:15 am 01:15 Clear 78 25.6 76 24.6 94 94 Calm 30.10 1019 10 16 0.00 0.00
1:35 am 01:35 Clear 77 25.2 76 24.4 95 95 Calm 30.11 1020 10 16 0.00 0.00
1:55 am 01:55 Clear 78 25.4 76 24.6 95 95 Calm 30.10 1019 10 16 0.00 0.00
2:15 am 02:15 Clear 78 25.6 76 24.7 95 95 Calm 30.10 1019 10 16 0.00 0.00
2:35 am 02:35 Clear 78 25.5 76 24.5 94 94 Calm 30.10 1019 10 16 0.00 0.00
2:55 am 02:55 Clear 77 25.2 76 24.6 96 96 Calm 30.09 1019 10 16 0.00 0.00
3:15 am 03:15 Clear 77 25 76 24.5 97 97 Calm 30.09 1019 10 16 0.00 0.00
3:35 am 03:35 Clear 76 24.7 76 24.3 98 98 Calm 30.09 1019 10 16 0.00 0.00
3:55 am 03:55 Clear 76 24.6 76 24.2 98 98 Calm 30.09 1019 7 11 0.00 0.00
4:15 am 04:15 Partly Cloudy 77 24.8 76 24.4 98 98 Calm 30.09 1019 10 16 0.00 0.00
4:35 am 04:35 Partly Cloudy 76 24.7 76 24.3 98 98 Calm 30.09 1019 10 16 0.00 0.00
4:55 am 04:55 Partly Cloudy with Mist and Fog 76 24.4 75 24.1 98 98 ESE 3 6 30.09 1019 3 5 0.00 0.00
5:15 am 05:15 Partly Cloudy 76 24.7 76 24.4 98 98 Calm 30.09 1019 10 16 0.00 0.00
5:35 am 05:35 Partly Cloudy 77 24.8 76 24.4 98 98 Calm 30.10 1019 10 16 0.00 0.00
6:00 am 06:00 Partly Cloudy 77 25 75 24 94 94 Calm 30.10 1019 10 16 0.00 0.00
6:45 am 06:45 Mostly Sunny 75 24 75 24 100 100 Calm 30.11 1020 10 16 0.00 0.00
7:45 am 07:45 Mostly Cloudy 79 26 77 25 94 94 Calm 30.13 1020 10 16 0.00 0.00
8:45 am 08:45 Partly Cloudy 81 27 77 25 89 89 Calm 30.14 1021 10 16 0.00 0.00
10:00 am 10:00 Mostly Cloudy 84 29 79 26 84 84 Calm 30.14 1021 10 16 0.00 0.00
10:45 am 10:45 Mostly Cloudy 88 31 75 24 66 66 SSW 7 11 30.14 1021 10 16 0.00 0.00
11:55 am 11:55 Mostly Cloudy 91 33 75 24 59 59 SSW 12 19 30.13 1020 10 16 0.00 0.00
12:08 pm 12:08 Mostly Cloudy with Thunderstorms 86 30 75 24 70 70 W 14 22 30.14 1021 10 16 0.00 0.00
12:50 pm 12:50 Mostly Cloudy 84 29 72 22 66 66 N 6 9 30.12 1020 10 16 0.00 0.00
1:50 pm 13:50 Mostly Cloudy 88 31 75 24 66 66 NNW 6 9 30.10 1019 10 16 0.00 0.00
2:55 pm 14:55 Mostly Cloudy with Nearby Thunderstorms 90 32 73 23 59 59 SSW 10 17 30.10 1019 10 16 0.00 0.00
3:50 pm 15:50 Partly Cloudy 90 32 77 25 67 67 SE 7 11 30.09 1019 10 16 0.00 0.00
4:50 pm 16:50 Partly Cloudy 90 32 75 24 63 63 SSW 13 20 30.08 1019 10 16 0.00 0.00
5:50 pm 17:50 Partly Cloudy 90 32 75 24 63 63 S 12 19 30.07 1018 10 16 0.00 0.00
6:50 pm 18:50 Partly Cloudy 84 29 75 24 74 74 VRB 7 11 30.08 1019 10 16 0.00 0.00
7:55 pm 19:55 Partly Cloudy 84 29 75 24 74 74 Calm 30.07 1018 10 16 0.00 0.00
8:50 pm 20:50 Mostly Clear 84 29 75 24 74 74 Calm 30.08 1019 10 16 0.00 0.00
9:50 pm 21:50 Mostly Clear 82 28 77 25 84 84 Calm 30.08 1019 10 16 0.00 0.00
10:15 pm 22:15 Clear 81 27.4 77 25 87 87 Calm 30.08 1019 10 16 0.00 0.00
10:35 pm 22:35 Clear 79 26.3 77 24.9 92 92 SE 3 6 30.08 1019 10 16 0.00 0.00
10:55 pm 22:55 Clear 78 25.8 77 24.8 94 94 SE 5 7 30.08 1019 10 16 0.00 0.00
11:15 pm 23:15 Clear 78 25.8 77 24.8 94 94 SSE 6 9 30.08 1019 10 16 0.00 0.00
11:35 pm 23:35 Clear 78 25.6 76 24.6 94 94 Calm 30.08 1019 10 16 0.00 0.00
11:55 pm 23:55 Clear 78 25.5 76 24.7 95 95 Calm 30.08 1019 10 16 0.00 0.00

Powered by AerisWeather